owner,sensor,date,latitude,longitude,vertical_datum,direction_of_sea_water_velocity,sea_water_speed,upward_sea_water_velocity,qcFlag 
TABS,ioos:station:wmo:42050:1,2006-10-01T00:00:00Z,28.8425,-94.2433,2.0,263.3621595,29.58831695,-99999.0,'11111222,11111222,99999999' 
TABS,ioos:station:wmo:42050:1,2006-10-01T00:30:00Z,28.8425,-94.2433,2.0,268.1969866,22.57116966,-99999.0,'11111222,11111222,99999999' 
TABS,ioos:station:wmo:42050:1,2006-10-01T01:00:00Z,28.8425,-94.2433,2.0,281.5011734,27.08378851,-99999.0,'11111222,11111222,99999999' 
TABS,ioos:station:wmo:42050:1,2006-10-01T01:30:00Z,28.8425,-94.2433,2.0,283.3792121,21.34939109,-99999.0,'11111222,11111222,99999999' 
TABS,ioos:station:wmo:42050:1,2006-10-01T02:00:00Z,28.8425,-94.2433,2.0,293.274007,23.05611633,-99999.0,'11111222,11111222,99999999' 
TABS,ioos:station:wmo:42050:1,2006-10-01T02:30:00Z,28.8425,-94.2433,2.0,297.8244522,25.23788422,-99999.0,'11111222,11111222,99999999' 
TABS,ioos:station:wmo:42050:1,2006-10-01T03:00:00Z,28.8425,-94.2433,2.0,293.0512184,24.95224439,-99999.0,'11111222,11111222,99999999' 
TABS,ioos:station:wmo:42050:1,2006-10-01T03:30:00Z,28.8425,-94.2433,2.0,299.4261018,22.49156731,-99999.0,'11111222,11111222,99999999' 
TABS,ioos:station:wmo:42050:1,2006-10-01T04:00:00Z,28.8425,-94.2433,2.0,299.9121532,22.13905373,-99999.0,'11111222,11111222,99999999' 
TABS,ioos:station:wmo:42050:1,2006-10-01T04:30:00Z,28.8425,-94.2433,2.0,296.9454953,20.89875116,-99999.0,'11111222,11111222,99999999' 
TABS,ioos:station:wmo:42050:1,2006-10-01T05:00:00Z,28.8425,-94.2433,2.0,298.6228098,19.05911331,-99999.0,'11111222,11111222,99999999' 
TABS,ioos:station:wmo:42050:1,2006-10-01T05:30:00Z,28.8425,-94.2433,2.0,307.7274248,16.30982526,-99999.0,'11111222,11111222,99999999' 
TABS,ioos:station:wmo:42050:1,2006-10-01T06:00:00Z,28.8425,-94.2433,2.0,313.6707295,14.32276859,-99999.0,'11111222,11111222,99999999' 
TABS,ioos:station:wmo:42050:1,2006-10-01T06:30:00Z,28.8425,-94.2433,2.0,313.544577,11.13345409,-99999.0,'11111222,11111222,99999999' 
TABS,ioos:station:wmo:42050:1,2006-10-01T07:00:00Z,28.8425,-94.2433,2.0,308.4016153,8.306966956,-99999.0,'11133222,11111222,99999999' 
TABS,ioos:station:wmo:42050:1,2006-10-01T07:30:00Z,28.8425,-94.2433,2.0,311.4441429,8.777955343,-99999.0,'11133222,11111222,99999999' 
TABS,ioos:station:wmo:42050:1,2006-10-01T08:00:00Z,28.8425,-94.2433,2.0,322.9364806,7.682043999,-99999.0,'11133222,11111222,99999999' 
TABS,ioos:station:wmo:42050:1,2006-10-01T08:30:00Z,28.8425,-94.2433,2.0,314.2061695,7.142464561,-99999.0,'11133222,11111222,99999999' 
TABS,ioos:station:wmo:42050:1,2006-10-01T09:00:00Z,28.8425,-94.2433,2.0,312.1298066,7.483508535,-99999.0,'11133222,11111222,99999999' 
TABS,ioos:station:wmo:42050:1,2006-10-01T09:30:00Z,28.8425,-94.2433,2.0,334.0796552,8.350005988,-99999.0,'11133222,11111222,99999999' 
TABS,ioos:station:wmo:42050:1,2006-10-01T10:00:00Z,28.8425,-94.2433,2.0,318.2433088,4.62481351,-99999.0,'11133222,11111222,99999999' 
TABS,ioos:station:wmo:42050:1,2006-10-01T10:30:00Z,28.8425,-94.2433,2.0,301.1685489,3.845022757,-99999.0,'11133222,11111222,99999999' 
TABS,ioos:station:wmo:42050:1,2006-10-01T11:00:00Z,28.8425,-94.2433,2.0,275.0285067,4.67800171,-99999.0,'11133222,11111222,99999999' 
TABS,ioos:station:wmo:42050:1,2006-10-01T11:30:00Z,28.8425,-94.2433,2.0,280.7572084,4.875674312,-99999.0,'11133222,11111222,99999999' 
TABS,ioos:station:wmo:42050:1,2006-10-01T12:00:00Z,28.8425,-94.2433,2.0,279.6107236,5.091453623,-99999.0,'11133222,11111222,99999999' 
TABS,ioos:station:wmo:42050:1,2006-10-01T12:30:00Z,28.8425,-94.2433,2.0,261.8694957,6.576093065,-99999.0,'11133222,11111222,99999999' 
TABS,ioos:station:wmo:42050:1,2006-10-01T13:00:00Z,28.8425,-94.2433,2.0,253.7832499,7.842002295,-99999.0,'11133222,11111222,99999999' 
TABS,ioos:station:wmo:42050:1,2006-10-01T13:30:00Z,28.8425,-94.2433,2.0,239.8123387,8.352748051,-99999.0,'11133222,11111222,99999999' 
TABS,ioos:station:wmo:42050:1,2006-10-01T14:00:00Z,28.8425,-94.2433,2.0,243.1757259,8.908585746,-99999.0,'11133222,11111222,99999999' 
TABS,ioos:station:wmo:42050:1,2006-10-01T14:30:00Z,28.8425,-94.2433,2.0,234.484264,8.968506007,-99999.0,'11133222,11111222,99999999' 
TABS,ioos:station:wmo:42050:1,2006-10-01T15:00:00Z,28.8425,-94.2433,2.0,231.6073182,12.04425174,-99999.0,'11111222,11111222,99999999' 
TABS,ioos:station:wmo:42050:1,2006-10-01T15:30:00Z,28.8425,-94.2433,2.0,236.9649543,15.51875317,-99999.0,'11111222,11111222,99999999' 
TABS,ioos:station:wmo:42050:1,2006-10-01T16:00:00Z,28.8425,-94.2433,2.0,245.5791946,16.13335055,-99999.0,'11111222,11111222,99999999' 
TABS,ioos:station:wmo:42050:1,2006-10-01T16:30:00Z,28.8425,-94.2433,2.0,255.2016325,17.14878421,-99999.0,'11111222,11111222,99999999' 
TABS,ioos:station:wmo:42050:1,2006-10-01T17:00:00Z,28.8425,-94.2433,2.0,281.0629074,19.07443315,-99999.0,'11111222,11111222,99999999' 
TABS,ioos:station:wmo:42050:1,2006-10-01T17:30:00Z,28.8425,-94.2433,2.0,280.0923676,20.94405166,-99999.0,'11111222,11111222,99999999' 
TABS,ioos:station:wmo:42050:1,2006-10-01T18:00:00Z,28.8425,-94.2433,2.0,281.0337567,19.90798081,-99999.0,'11111222,11111222,99999999' 
TABS,ioos:station:wmo:42050:1,2006-10-01T18:30:00Z,28.8425,-94.2433,2.0,284.6425029,21.56019712,-99999.0,'11111222,11111222,99999999' 
TABS,ioos:station:wmo:42050:1,2006-10-01T19:00:00Z,28.8425,-94.2433,2.0,276.9668219,20.61217116,-99999.0,'11111222,11111222,99999999' 
TABS,ioos:station:wmo:42050:1,2006-10-01T19:30:00Z,28.8425,-94.2433,2.0,280.789339,23.07793968,-99999.0,'11111222,11111222,99999999' 
TABS,ioos:station:wmo:42050:1,2006-10-01T20:00:00Z,28.8425,-94.2433,2.0,278.885839,22.2064968,-99999.0,'11111222,11111222,99999999' 
TABS,ioos:station:wmo:42050:1,2006-10-01T20:30:00Z,28.8425,-94.2433,2.0,284.2071538,25.26262259,-99999.0,'11111222,11111222,99999999' 
TABS,ioos:station:wmo:42050:1,2006-10-01T21:00:00Z,28.8425,-94.2433,2.0,293.0844625,24.96928113,-99999.0,'11111222,11111222,99999999' 
TABS,ioos:station:wmo:42050:1,2006-10-01T21:30:00Z,28.8425,-94.2433,2.0,288.3853865,25.39626154,-99999.0,'11111222,11111222,99999999' 
TABS,ioos:station:wmo:42050:1,2006-10-01T22:00:00Z,28.8425,-94.2433,2.0,290.2796556,24.95697498,-99999.0,'11111222,11111222,99999999' 
TABS,ioos:station:wmo:42050:1,2006-10-01T22:30:00Z,28.8425,-94.2433,2.0,294.2027603,28.85639097,-99999.0,'11111222,11111222,99999999' 
TABS,ioos:station:wmo:42050:1,2006-10-01T23:00:00Z,28.8425,-94.2433,2.0,301.8454364,42.81454192,-99999.0,'11111222,11111222,99999999' 
TABS,ioos:station:wmo:42050:1,2006-10-01T23:30:00Z,28.8425,-94.2433,2.0,302.8457926,46.84952188,-99999.0,'11111222,11111222,99999999' 
TABS,ioos:station:wmo:42050:1,2006-10-02T00:00:00Z,28.8425,-94.2433,2.0,307.0806993,47.36831958,-99999.0,'11111222,11111222,99999999' 
TABS,ioos:station:wmo:42050:1,2006-10-02T00:30:00Z,28.8425,-94.2433,2.0,307.8104935,47.28836749,-99999.0,'11111222,11111222,99999999' 
TABS,ioos:station:wmo:42050:1,2006-10-02T01:00:00Z,28.8425,-94.2433,2.0,312.6190964,42.88770453,-99999.0,'11111222,11111222,99999999' 
TABS,ioos:station:wmo:42050:1,2006-10-02T01:30:00Z,28.8425,-94.2433,2.0,308.8525937,44.63471295,-99999.0,'11111222,11111222,99999999' 
TABS,ioos:station:wmo:42050:1,2006-10-02T02:00:00Z,28.8425,-94.2433,2.0,312.4397809,41.15227576,-99999.0,'11111222,11111222,99999999' 
TABS,ioos:station:wmo:42050:1,2006-10-02T02:30:00Z,28.8425,-94.2433,2.0,309.0641015,43.41582315,-99999.0,'11111222,11111222,99999999' 
TABS,ioos:station:wmo:42050:1,2006-10-02T03:00:00Z,28.8425,-94.2433,2.0,313.4577926,38.87667681,-99999.0,'11111222,11111222,99999999' 
TABS,ioos:station:wmo:42050:1,2006-10-02T03:30:00Z,28.8425,-94.2433,2.0,321.0727579,31.75047244,-99999.0,'11111222,11111222,99999999' 
TABS,ioos:station:wmo:42050:1,2006-10-02T04:00:00Z,28.8425,-94.2433,2.0,321.741913,30.53896691,-99999.0,'11111222,11111222,99999999' 
TABS,ioos:station:wmo:42050:1,2006-10-02T04:30:00Z,28.8425,-94.2433,2.0,309.9288436,44.15490007,-99999.0,'11111222,11111222,99999999' 
TABS,ioos:station:wmo:42050:1,2006-10-02T05:00:00Z,28.8425,-94.2433,2.0,306.5624285,42.06860706,-99999.0,'11111222,11111222,99999999' 
TABS,ioos:station:wmo:42050:1,2006-10-02T05:30:00Z,28.8425,-94.2433,2.0,303.6555701,41.05059561,-99999.0,'11111222,11111222,99999999' 
TABS,ioos:station:wmo:42050:1,2006-10-02T06:00:00Z,28.8425,-94.2433,2.0,302.1591631,40.37440402,-99999.0,'11111222,11111222,99999999' 
TABS,ioos:station:wmo:42050:1,2006-10-02T06:30:00Z,28.8425,-94.2433,2.0,298.8124418,38.78087802,-99999.0,'11111222,11111222,99999999' 
TABS,ioos:station:wmo:42050:1,2006-10-02T07:00:00Z,28.8425,-94.2433,2.0,295.5545864,35.23697064,-99999.0,'11111222,11111222,99999999' 
TABS,ioos:station:wmo:42050:1,2006-10-02T07:30:00Z,28.8425,-94.2433,2.0,294.1785071,33.18073236,-99999.0,'11111222,11111222,99999999' 
TABS,ioos:station:wmo:42050:1,2006-10-02T08:00:00Z,28.8425,-94.2433,2.0,290.2901315,29.21261543,-99999.0,'11111222,11111222,99999999' 
TABS,ioos:station:wmo:42050:1,2006-10-02T08:30:00Z,28.8425,-94.2433,2.0,293.295977,27.91578765,-99999.0,'11111222,11111222,99999999' 
TABS,ioos:station:wmo:42050:1,2006-10-02T09:00:00Z,28.8425,-94.2433,2.0,291.2116473,27.22438062,-99999.0,'11111222,11111222,99999999' 
TABS,ioos:station:wmo:42050:1,2006-10-02T09:30:00Z,28.8425,-94.2433,2.0,284.723519,25.69364513,-99999.0,'11111222,11111222,99999999' 
TABS,ioos:station:wmo:42050:1,2006-10-02T10:00:00Z,28.8425,-94.2433,2.0,287.9615497,22.18097383,-99999.0,'11111222,11111222,99999999' 
TABS,ioos:station:wmo:42050:1,2006-10-03T04:30:00Z,28.8425,-94.2433,2.0,344.5664231,42.46121642,-99999.0,'11111222,11111222,99999999' 
TABS,ioos:station:wmo:42050:1,2006-10-03T05:00:00Z,28.8425,-94.2433,2.0,348.0574348,39.23934887,-99999.0,'11111222,11111222,99999999' 
TABS,ioos:station:wmo:42050:1,2006-10-03T05:30:00Z,28.8425,-94.2433,2.0,348.2420288,37.09846358,-99999.0,'11111222,11111222,99999999' 
TABS,ioos:station:wmo:42050:1,2006-10-03T06:00:00Z,28.8425,-94.2433,2.0,345.5811351,38.11047363,-99999.0,'11111222,11111222,99999999' 
TABS,ioos:station:wmo:42050:1,2006-10-03T06:30:00Z,28.8425,-94.2433,2.0,342.4395266,45.80459911,-99999.0,'11111222,11111222,99999999' 
TABS,ioos:station:wmo:42050:1,2006-10-03T07:00:00Z,28.8425,-94.2433,2.0,340.8791088,40.66348239,-99999.0,'11111222,11111222,99999999' 
TABS,ioos:station:wmo:42050:1,2006-10-03T07:30:00Z,28.8425,-94.2433,2.0,339.1176404,39.83677196,-99999.0,'11111222,11111222,99999999' 
TABS,ioos:station:wmo:42050:1,2006-10-03T08:00:00Z,28.8425,-94.2433,2.0,338.6278279,38.44372641,-99999.0,'11111222,11111222,99999999' 
TABS,ioos:station:wmo:42050:1,2006-10-03T08:30:00Z,28.8425,-94.2433,2.0,340.545312,36.23911975,-99999.0,'11111222,11111222,99999999' 
TABS,ioos:station:wmo:42050:1,2006-10-03T09:00:00Z,28.8425,-94.2433,2.0,337.6091199,36.80490864,-99999.0,'11111222,11111222,99999999' 
TABS,ioos:station:wmo:42050:1,2006-10-03T09:30:00Z,28.8425,-94.2433,2.0,338.3241504,37.36199138,-99999.0,'11111222,11111222,99999999' 
TABS,ioos:station:wmo:42050:1,2006-10-03T10:00:00Z,28.8425,-94.2433,2.0,339.1925749,35.9764548,-99999.0,'11111222,11111222,99999999' 
TABS,ioos:station:wmo:42050:1,2006-10-03T10:30:00Z,28.8425,-94.2433,2.0,337.1751355,35.85792242,-99999.0,'11111222,11111222,99999999' 
TABS,ioos:station:wmo:42050:1,2006-10-03T11:00:00Z,28.8425,-94.2433,2.0,335.8103038,37.33863415,-99999.0,'11111222,11111222,99999999' 
TABS,ioos:station:wmo:42050:1,2006-10-03T11:30:00Z,28.8425,-94.2433,2.0,336.7600174,34.31431917,-99999.0,'11111222,11111222,99999999' 
TABS,ioos:station:wmo:42050:1,2006-10-03T12:00:00Z,28.8425,-94.2433,2.0,335.8809341,37.83295521,-99999.0,'11111222,11111222,99999999' 
TABS,ioos:station:wmo:42050:1,2006-10-03T12:30:00Z,28.8425,-94.2433,2.0,334.896883,36.81765881,-99999.0,'11111222,11111222,99999999' 
TABS,ioos:station:wmo:42050:1,2006-10-03T13:00:00Z,28.8425,-94.2433,2.0,337.5885831,35.56638863,-99999.0,'11111222,11111222,99999999' 
TABS,ioos:station:wmo:42050:1,2006-10-03T13:30:00Z,28.8425,-94.2433,2.0,335.5522748,35.22869995,-99999.0,'11111222,11111222,99999999' 
TABS,ioos:station:wmo:42050:1,2006-10-03T14:00:00Z,28.8425,-94.2433,2.0,335.9225317,34.83050531,-99999.0,'11111222,11111222,99999999' 
TABS,ioos:station:wmo:42050:1,2006-10-03T14:30:00Z,28.8425,-94.2433,2.0,334.9812116,31.9918896,-99999.0,'11111222,11111222,99999999' 
TABS,ioos:station:wmo:42050:1,2006-10-03T15:00:00Z,28.8425,-94.2433,2.0,329.9135152,30.14097709,-99999.0,'11111222,11111222,99999999' 
TABS,ioos:station:wmo:42050:1,2006-10-03T15:30:00Z,28.8425,-94.2433,2.0,327.331895,31.4204408,-99999.0,'11111222,11111222,99999999' 
TABS,ioos:station:wmo:42050:1,2006-10-03T16:00:00Z,28.8425,-94.2433,2.0,323.9609228,31.59731951,-99999.0,'11111222,11111222,99999999' 
TABS,ioos:station:wmo:42050:1,2006-10-03T16:30:00Z,28.8425,-94.2433,2.0,321.3604781,31.34095244,-99999.0,'11111222,11111222,99999999' 
TABS,ioos:station:wmo:42050:1,2006-10-03T17:00:00Z,28.8425,-94.2433,2.0,315.702197,29.43906418,-99999.0,'11111222,11111222,99999999' 
TABS,ioos:station:wmo:42050:1,2006-10-03T17:30:00Z,28.8425,-94.2433,2.0,309.0202673,28.57411591,-99999.0,'11111222,11111222,99999999' 
TABS,ioos:station:wmo:42050:1,2006-10-03T18:00:00Z,28.8425,-94.2433,2.0,304.8094246,30.53374854,-99999.0,'11111222,11111222,99999999' 
TABS,ioos:station:wmo:42050:1,2006-10-03T18:30:00Z,28.8425,-94.2433,2.0,303.4948446,30.87756629,-99999.0,'11111222,11111222,99999999' 
TABS,ioos:station:wmo:42050:1,2006-10-03T19:00:00Z,28.8425,-94.2433,2.0,295.4414371,29.86619829,-99999.0,'11111222,11111222,99999999' 
TABS,ioos:station:wmo:42050:1,2006-10-03T19:30:00Z,28.8425,-94.2433,2.0,291.5984624,31.92122961,-99999.0,'11111222,11111222,99999999' 
TABS,ioos:station:wmo:42050:1,2006-10-03T20:00:00Z,28.8425,-94.2433,2.0,289.4882935,32.52319326,-99999.0,'11111222,11111222,99999999' 
TABS,ioos:station:wmo:42050:1,2006-10-03T20:30:00Z,28.8425,-94.2433,2.0,286.9155946,31.00122578,-99999.0,'11111222,11111222,99999999' 
TABS,ioos:station:wmo:42050:1,2006-10-03T21:00:00Z,28.8425,-94.2433,2.0,285.5415524,30.56760704,-99999.0,'11111222,11111222,99999999' 
TABS,ioos:station:wmo:42050:1,2006-10-03T21:30:00Z,28.8425,-94.2433,2.0,284.576833,29.84048425,-99999.0,'11111222,11111222,99999999' 
TABS,ioos:station:wmo:42050:1,2006-10-03T22:00:00Z,28.8425,-94.2433,2.0,291.2159473,28.87713455,-99999.0,'11111222,11111222,99999999' 
TABS,ioos:station:wmo:42050:1,2006-10-03T22:30:00Z,28.8425,-94.2433,2.0,289.0053203,28.92678517,-99999.0,'11111222,11111222,99999999' 
TABS,ioos:station:wmo:42050:1,2006-10-03T23:00:00Z,28.8425,-94.2433,2.0,297.1329305,29.79930368,-99999.0,'11111222,11111222,99999999' 
TABS,ioos:station:wmo:42050:1,2006-10-03T23:30:00Z,28.8425,-94.2433,2.0,300.333614,28.98844597,-99999.0,'11111222,11111222,99999999' 
TABS,ioos:station:wmo:42050:1,2006-10-04T00:00:00Z,28.8425,-94.2433,2.0,300.83044,29.40522743,-99999.0,'11111222,11111222,99999999' 
TABS,ioos:station:wmo:42050:1,2006-10-04T00:30:00Z,28.8425,-94.2433,2.0,304.1142472,26.99522365,-99999.0,'11111222,11111222,99999999' 
TABS,ioos:station:wmo:42050:1,2006-10-04T01:00:00Z,28.8425,-94.2433,2.0,305.0230287,27.54831574,-99999.0,'11111222,11111222,99999999' 
TABS,ioos:station:wmo:42050:1,2006-10-04T01:30:00Z,28.8425,-94.2433,2.0,309.6203315,24.51022848,-99999.0,'11111222,11111222,99999999' 
TABS,ioos:station:wmo:42050:1,2006-10-04T02:00:00Z,28.8425,-94.2433,2.0,310.13715,25.68974893,-99999.0,'11111222,11111222,99999999' 
TABS,ioos:station:wmo:42050:1,2006-10-04T02:30:00Z,28.8425,-94.2433,2.0,316.3082082,26.33244577,-99999.0,'11111222,11111222,99999999' 
TABS,ioos:station:wmo:42050:1,2006-10-04T03:00:00Z,28.8425,-94.2433,2.0,323.2571591,22.60005531,-99999.0,'11111222,11111222,99999999' 
TABS,ioos:station:wmo:42050:1,2006-10-04T03:30:00Z,28.8425,-94.2433,2.0,323.5930321,19.07262174,-99999.0,'11111222,11111222,99999999' 
TABS,ioos:station:wmo:42050:1,2006-10-04T04:00:00Z,28.8425,-94.2433,2.0,330.5083507,21.63310888,-99999.0,'11111222,11111222,99999999' 
TABS,ioos:station:wmo:42050:1,2006-10-04T04:30:00Z,28.8425,-94.2433,2.0,317.3339567,20.31788621,-99999.0,'11111222,11111222,99999999' 
TABS,ioos:station:wmo:42050:1,2006-10-04T05:00:00Z,28.8425,-94.2433,2.0,325.7874224,20.06156774,-99999.0,'11111222,11111222,99999999' 
TABS,ioos:station:wmo:42050:1,2006-10-04T05:30:00Z,28.8425,-94.2433,2.0,320.3348512,22.51279192,-99999.0,'11111222,11111222,99999999' 
TABS,ioos:station:wmo:42050:1,2006-10-04T06:00:00Z,28.8425,-94.2433,2.0,316.9695907,19.75408818,-99999.0,'11111222,11111222,99999999' 
TABS,ioos:station:wmo:42050:1,2006-10-04T06:30:00Z,28.8425,-94.2433,2.0,313.3267043,19.36884612,-99999.0,'11111222,11111222,99999999' 
TABS,ioos:station:wmo:42050:1,2006-10-04T07:00:00Z,28.8425,-94.2433,2.0,311.9576363,18.51694629,-99999.0,'11111222,11111222,99999999' 
TABS,ioos:station:wmo:42050:1,2006-10-04T07:30:00Z,28.8425,-94.2433,2.0,309.5203045,20.80625146,-99999.0,'11111222,11111222,99999999' 
TABS,ioos:station:wmo:42050:1,2006-10-04T08:00:00Z,28.8425,-94.2433,2.0,308.6199595,20.04334553,-99999.0,'11111222,11111222,99999999' 
TABS,ioos:station:wmo:42050:1,2006-10-04T08:30:00Z,28.8425,-94.2433,2.0,295.7083367,29.00057413,-99999.0,'11111222,11111222,99999999' 
TABS,ioos:station:wmo:42050:1,2006-10-04T09:00:00Z,28.8425,-94.2433,2.0,292.6120467,26.91923104,-99999.0,'11111222,11111222,99999999' 
TABS,ioos:station:wmo:42050:1,2006-10-04T09:30:00Z,28.8425,-94.2433,2.0,289.5363808,26.82422972,-99999.0,'11111222,11111222,99999999' 
TABS,ioos:station:wmo:42050:1,2006-10-04T10:00:00Z,28.8425,-94.2433,2.0,286.0627908,27.57656433,-99999.0,'11111222,11111222,99999999' 
TABS,ioos:station:wmo:42050:1,2006-10-04T10:30:00Z,28.8425,-94.2433,2.0,281.822811,28.06534162,-99999.0,'11111222,11111222,99999999' 
TABS,ioos:station:wmo:42050:1,2006-10-04T11:00:00Z,28.8425,-94.2433,2.0,282.0262795,27.30934272,-99999.0,'11111222,11111222,99999999' 
TABS,ioos:station:wmo:42050:1,2006-10-04T11:30:00Z,28.8425,-94.2433,2.0,279.2258411,22.26803314,-99999.0,'11111222,11111222,99999999' 
TABS,ioos:station:wmo:42050:1,2006-10-04T12:00:00Z,28.8425,-94.2433,2.0,282.1978271,24.94308121,-99999.0,'11111222,11111222,99999999' 
TABS,ioos:station:wmo:42050:1,2006-10-04T12:30:00Z,28.8425,-94.2433,2.0,279.1563653,28.59432461,-99999.0,'11111222,11111222,99999999' 
TABS,ioos:station:wmo:42050:1,2006-10-04T13:00:00Z,28.8425,-94.2433,2.0,286.0800051,29.31694561,-99999.0,'11111222,11111222,99999999' 
TABS,ioos:station:wmo:42050:1,2006-10-04T13:30:00Z,28.8425,-94.2433,2.0,288.5429656,28.61550104,-99999.0,'11111222,11111222,99999999' 
TABS,ioos:station:wmo:42050:1,2006-10-04T14:00:00Z,28.8425,-94.2433,2.0,290.0122173,28.95845645,-99999.0,'11111222,11111222,99999999' 
TABS,ioos:station:wmo:42050:1,2006-10-04T14:30:00Z,28.8425,-94.2433,2.0,286.0691862,29.33616369,-99999.0,'11111222,11111222,99999999' 
TABS,ioos:station:wmo:42050:1,2006-10-04T15:00:00Z,28.8425,-94.2433,2.0,287.6117815,29.48179777,-99999.0,'11111222,11111222,99999999' 
TABS,ioos:station:wmo:42050:1,2006-10-04T15:30:00Z,28.8425,-94.2433,2.0,287.051074,30.76212769,-99999.0,'11111222,11111222,99999999' 
TABS,ioos:station:wmo:42050:1,2006-10-04T16:00:00Z,28.8425,-94.2433,2.0,286.9271783,33.28185241,-99999.0,'11111222,11111222,99999999' 
TABS,ioos:station:wmo:42050:1,2006-10-04T16:30:00Z,28.8425,-94.2433,2.0,284.8895506,31.44580258,-99999.0,'11111222,11111222,99999999' 
TABS,ioos:station:wmo:42050:1,2006-10-04T17:00:00Z,28.8425,-94.2433,2.0,282.3739503,36.02685804,-99999.0,'11111222,11111222,99999999' 
TABS,ioos:station:wmo:42050:1,2006-10-04T17:30:00Z,28.8425,-94.2433,2.0,280.9665697,35.95657937,-99999.0,'11111222,11111222,99999999' 
TABS,ioos:station:wmo:42050:1,2006-10-04T18:00:00Z,28.8425,-94.2433,2.0,278.9369926,36.37151908,-99999.0,'11111222,11111222,99999999' 
TABS,ioos:station:wmo:42050:1,2006-10-04T18:30:00Z,28.8425,-94.2433,2.0,279.0627804,36.50568449,-99999.0,'11111222,11111222,99999999' 
TABS,ioos:station:wmo:42050:1,2006-10-04T19:00:00Z,28.8425,-94.2433,2.0,272.9987356,37.47129568,-99999.0,'11111222,11111222,99999999' 
TABS,ioos:station:wmo:42050:1,2006-10-04T19:30:00Z,28.8425,-94.2433,2.0,268.3455599,38.45602294,-99999.0,'11111222,11111222,99999999' 
TABS,ioos:station:wmo:42050:1,2006-10-04T20:00:00Z,28.8425,-94.2433,2.0,268.0888788,36.89051098,-99999.0,'11111222,11111222,99999999' 
TABS,ioos:station:wmo:42050:1,2006-10-04T20:30:00Z,28.8425,-94.2433,2.0,266.6380096,34.4492743,-99999.0,'11111222,11111222,99999999' 
TABS,ioos:station:wmo:42050:1,2006-10-04T21:00:00Z,28.8425,-94.2433,2.0,266.5524207,31.26657161,-99999.0,'11111222,11111222,99999999' 
TABS,ioos:station:wmo:42050:1,2006-10-04T21:30:00Z,28.8425,-94.2433,2.0,266.7564062,34.11463762,-99999.0,'11111222,11111222,99999999' 
TABS,ioos:station:wmo:42050:1,2006-10-04T22:00:00Z,28.8425,-94.2433,2.0,262.2004097,31.09766068,-99999.0,'11111222,11111222,99999999' 
TABS,ioos:station:wmo:42050:1,2006-10-04T22:30:00Z,28.8425,-94.2433,2.0,263.6965804,32.33546196,-99999.0,'11111222,11111222,99999999' 
TABS,ioos:station:wmo:42050:1,2006-10-04T23:00:00Z,28.8425,-94.2433,2.0,263.6167715,29.68400243,-99999.0,'11111222,11111222,99999999' 
TABS,ioos:station:wmo:42050:1,2006-10-04T23:30:00Z,28.8425,-94.2433,2.0,266.9474899,29.11129334,-99999.0,'11111222,11111222,99999999' 
TABS,ioos:station:wmo:42050:1,2006-10-05T00:00:00Z,28.8425,-94.2433,2.0,270.3439159,25.02044964,-99999.0,'11111222,11111222,99999999' 
TABS,ioos:station:wmo:42050:1,2006-10-05T00:30:00Z,28.8425,-94.2433,2.0,272.9137166,23.61051461,-99999.0,'11111222,11111222,99999999' 
TABS,ioos:station:wmo:42050:1,2006-10-05T01:00:00Z,28.8425,-94.2433,2.0,273.6134862,22.37447206,-99999.0,'11111222,11111222,99999999' 
TABS,ioos:station:wmo:42050:1,2006-10-05T01:30:00Z,28.8425,-94.2433,2.0,284.3050925,19.66985511,-99999.0,'11111222,11111222,99999999' 
TABS,ioos:station:wmo:42050:1,2006-10-05T02:00:00Z,28.8425,-94.2433,2.0,285.6627849,17.52055364,-99999.0,'11111222,11111222,99999999' 
TABS,ioos:station:wmo:42050:1,2006-10-05T02:30:00Z,28.8425,-94.2433,2.0,286.8139751,16.31756109,-99999.0,'11111222,11111222,99999999' 
TABS,ioos:station:wmo:42050:1,2006-10-05T03:00:00Z,28.8425,-94.2433,2.0,301.6152372,15.24206351,-99999.0,'11111222,11111222,99999999' 
TABS,ioos:station:wmo:42050:1,2006-10-05T03:30:00Z,28.8425,-94.2433,2.0,306.0303488,15.96371511,-99999.0,'11111222,11111222,99999999' 
TABS,ioos:station:wmo:42050:1,2006-10-05T04:00:00Z,28.8425,-94.2433,2.0,314.3410524,12.90555307,-99999.0,'11111222,11111222,99999999' 
TABS,ioos:station:wmo:42050:1,2006-10-05T04:30:00Z,28.8425,-94.2433,2.0,321.2586057,14.20557989,-99999.0,'11111222,11111222,99999999' 
TABS,ioos:station:wmo:42050:1,2006-10-05T05:00:00Z,28.8425,-94.2433,2.0,317.8946507,13.30350706,-99999.0,'11111222,11111222,99999999' 
TABS,ioos:station:wmo:42050:1,2006-10-05T05:30:00Z,28.8425,-94.2433,2.0,319.1381485,13.81752872,-99999.0,'11111222,11111222,99999999' 
TABS,ioos:station:wmo:42050:1,2006-10-05T06:00:00Z,28.8425,-94.2433,2.0,325.2831829,14.85448417,-99999.0,'11111222,11111222,99999999' 
TABS,ioos:station:wmo:42050:1,2006-10-05T06:30:00Z,28.8425,-94.2433,2.0,319.8392032,16.09454566,-99999.0,'11111222,11111222,99999999' 
TABS,ioos:station:wmo:42050:1,2006-10-05T07:00:00Z,28.8425,-94.2433,2.0,313.6031379,14.79,-99999.0,'11111222,11111222,99999999' 
TABS,ioos:station:wmo:42050:1,2006-10-05T07:30:00Z,28.8425,-94.2433,2.0,306.9129266,13.42000373,-99999.0,'11111222,11111222,99999999' 
TABS,ioos:station:wmo:42050:1,2006-10-05T08:00:00Z,28.8425,-94.2433,2.0,289.6735648,9.95084921,-99999.0,'11133222,11111222,99999999' 
TABS,ioos:station:wmo:42050:1,2006-10-05T08:30:00Z,28.8425,-94.2433,2.0,270.5906088,12.62066955,-99999.0,'11111222,11111222,99999999' 
TABS,ioos:station:wmo:42050:1,2006-10-05T09:00:00Z,28.8425,-94.2433,2.0,253.5151644,11.24208611,-99999.0,'11111222,11111222,99999999' 
TABS,ioos:station:wmo:42050:1,2006-10-05T09:30:00Z,28.8425,-94.2433,2.0,268.0393326,6.72393486,-99999.0,'11133222,11111222,99999999' 
TABS,ioos:station:wmo:42050:1,2006-10-05T10:00:00Z,28.8425,-94.2433,2.0,242.368039,13.45451597,-99999.0,'11111222,11111222,99999999' 